GW5164 Weather Reports


time (UTC)temp
F
wind
direction
speed
knots
gust
knots
rain 1hr
in
rain 24hr
in
rain mn
in
humidity
%
barometer
mb
20260503054610 43 267 0.9 3.5 0.00 0.00 0.00 70 1015.9
20260503053053 44 320 0.9 2.6 0.00 0.00 0.00 66 1015.9
20260503051555 44 0 0.0 1.7 0.00 0.00 0.00 67 1016.0
20260503050055 44 0 0.0 0.9 0.00 0.00 0.00 66 1015.9
20260503044554 44 0 0.0 0.9 0.00 0.00 0.00 68 1015.7
20260503043056 44 270 0.0 0.9 0.00 0.00 0.00 64 1015.7
20260503041556 44 0 0.0 1.7 0.00 0.00 0.00 66 1015.5
20260503040057 44 0 0.0 1.7 0.00 0.00 0.00 66 1015.4
20260503034558 46 272 0.9 1.7 0.00 0.00 0.00 62 1015.4
20260503033103 48 0 0.0 0.9 0.00 0.00 0.00 55 1015.3
20260503031557 49 0 0.0 0.9 0.00 0.00 0.00 54 1015.3
20260503030104 49 27 0.0 2.6 0.00 0.00 0.00 51 1015.2
20260503024557 50 0 0.0 0.9 0.00 0.00 0.00 51 1015.1
20260503023103 51 15 0.0 2.6 0.00 0.00 0.00 48 1015.1
20260503021601 51 8 0.0 2.6 0.00 0.00 0.00 49 1015.0
20260503020055 52 48 0.0 1.7 0.00 0.00 0.00 46 1014.9
20260503014606 53 274 0.9 4.3 0.00 0.00 0.00 44 1014.6
20260503013057 54 305 1.7 5.2 0.00 0.00 0.00 45 1014.4
20260503011601 54 342 3.5 11.3 0.00 0.00 0.00 43 1014.1
20260503010057 55 340 2.6 10.4 0.00 0.00 0.00 42 1013.7
20260503004559 55 310 2.6 9.6 0.00 0.00 0.00 43 1013.5
20260503003106 56 306 2.6 10.4 0.00 0.00 0.00 42 1013.4
20260503001557 57 253 1.7 7.0 0.00 0.00 0.00 42 1013.1
20260502234606 58 342 1.7 7.8 0.00 0.00 0.00 38 1012.5
20260502233059 59 332 2.6 12.2 0.00 0.00 0.00 37 1012.2
20260502231602 59 351 3.5 9.6 0.00 0.00 0.00 37 1012.0
20260502230055 59 329 3.5 9.6 0.00 0.00 0.00 37 1011.8
20260502224556 60 334 3.5 14.8 0.00 0.00 0.00 36 1011.7
20260502223054 62 349 4.3 12.2 0.00 0.00 0.00 35 1011.5
20260502221556 63 334 3.5 10.4 0.00 0.00 0.00 33 1011.4
20260502220055 63 342 5.2 11.3 0.00 0.00 0.00 34 1011.0
20260502214558 65 297 1.7 6.1 0.00 0.00 0.00 33 1010.8
20260502213054 63 277 1.7 5.2 0.00 0.00 0.00 37 1010.7
20260502211603 64 213 0.9 4.3 0.00 0.00 0.00 40 1010.4
20260502210110 63 59 2.6 12.2 0.00 0.00 0.00 33 1010.3
20260502204609 63 0 0.0 7.0 0.00 0.00 0.00 40 1010.5
20260502203058 64 101 0.9 7.8 0.00 0.00 0.00 37 1010.4
20260502201600 64 349 8.7 15.6 0.00 0.00 0.00 35 1010.5
20260502200058 63 333 2.6 7.8 0.00 0.00 0.00 35 1010.7
20260502194557 63 126 1.7 6.1 0.00 0.00 0.00 37 1010.9
20260502193103 62 90 3.5 7.0 0.00 0.00 0.00 38 1011.1
20260502191606 63 151 0.9 3.5 0.00 0.00 0.00 36 1011.3
20260502190101 61 327 2.6 7.8 0.00 0.00 0.00 36 1011.5
20260502184601 60 58 3.5 7.8 0.00 0.00 0.00 36 1011.8
20260502183055 59 44 3.5 10.4 0.00 0.00 0.00 41 1011.8
20260502181556 59 49 1.7 7.0 0.00 0.00 0.00 40 1011.9
20260502163058 55 108 2.6 6.1 0.00 0.00 0.00 50 1013.6
20260502161559 54 43 0.9 3.5 0.00 0.00 0.00 52 1014.0
20260502151613 53 75 0.9 4.3 0.00 0.00 0.00 50 1014.1
20260502123103 53 33 0.9 3.5 0.00 0.00 0.00 56 1013.1
20260502121554 53 316 0.0 3.5 0.00 0.00 0.00 62 1013.3
20260502114600 53 54 0.9 3.5 0.00 0.00 0.00 65 1013.0
20260502113056 53 27 0.9 2.6 0.00 0.00 0.00 65 1013.0
20260502111600 53 18 0.9 4.3 0.00 0.00 0.00 64 1012.8
20260502110056 53 3 1.7 3.5 0.00 0.00 0.00 64 1012.8
20260502104555 53 43 2.6 5.2 0.00 0.00 0.00 64 1012.5
20260502103105 53 43 2.6 8.7 0.00 0.00 0.00 63 1012.5
20260502101611 53 347 1.7 9.6 0.00 0.00 0.00 64 1012.3
20260502100127 54 31 2.6 8.7 0.00 0.00 0.00 64 1012.6
20260502090114 54 347 2.6 5.2 0.00 0.00 0.00 66 1012.8
20260502070059 55 0 0.0 2.6 0.00 0.00 0.00 73 1011.6
20260502064606 55 283 0.9 4.3 0.00 0.00 0.00 73 1011.7